Location: Gro�bocka
(50.8204°N, 11.9702°E)
Time: 20:26:18
(UTC+00:00)

X-37B - Pass Details

Date: 22 June 2021
Orbit: 383 x 392 km, 45.0° (Epoch: 01 July)

Event Time Altitude Azimuth Distance (km) Brightness Sun altitude
Exits shadow 01:43:00 12° 231° (SW) 1,291 2.6 -8.8°
Maximum altitude 01:44:21 15° 203° (SSW) 1,156 2.3 -8.7°
Drops below altitude 10° 01:46:13 10° 167° (SSE) 1,403 3.0 -8.5°
Sets 01:48:54 0° 142° (SE) 2,256 4.3 -8.3°
